sat.trackr.live / text

‹ back to catalog

STARLINK-33789

NORAD 63657 · 2025-083Z

PAYLOAD ACTIVE UNKNOWN

§ Identity

Operator
Country
US
Launch date
2025-04-25
Launch site
AFETR
Launch vehicle
Mass (kg)
RCS (m²)

Purposes: comms

External: N2YO · Heavens-Above · Gunter

§ Orbital elements

Epoch: 2026-09-19T08:00:18.147168Z

Period
94.27 min
Inclination
43.0015°
Eccentricity
0.0002110
Mean motion
15.27590418 rev/d
Perigee alt
481.6 km
Apogee alt
484.5 km
Semi-major
6,861.2 km
B*
6.0838e-4
RAAN
351.4818°
Arg perigee
282.7404°
Mean anomaly
77.3211°
Rev number
7,971

§ Raw data

STARLINK-337891 63657U 25083Z   26262.33354337  .00016522  00000+0  60838-3 0  99972 63657  43.0015 351.4818 0002110 282.7404  77.3211 15.27590418 79710

JSON: /api/v1/satellites/63657 · /tle

For live sub-satellite position, see the globe view (requires WebGL).

§ Visibility from observer

Set your observer location to see the next 7 days of passes ≥ 10°. The values pass through the URL so the page stays shareable.

No JS? Fill the form by hand. The geolocation button needs JavaScript.